| time (UTC) | temp F | wind direction | speed knots | gust knots | rain 1hr in | rain 24hr in | rain mn in | humidity % | barometer mb |
| 20260505071207 | 68 | 185 | 2.6 | 4.3 | 0.00 | 0.00 | 0.00 | 65 | 1004.4 |
| 20260505070704 | 68 | 182 | 2.6 | 4.3 | 0.00 | 0.00 | 0.00 | 65 | 1004.8 |
| 20260505070200 | 68 | 166 | 4.3 | 7.0 | 0.00 | 0.00 | 0.00 | 65 | 1004.4 |
| 20260505065656 | 68 | 162 | 3.5 | 9.6 | 0.00 | 0.00 | 0.00 | 64 | 1004.4 |
| 20260505065153 | 68 | 154 | 7.0 | 8.7 | 0.00 | 0.00 | 0.00 | 65 | 1004.3 |
| 20260505064650 | 68 | 176 | 4.3 | 7.8 | 0.00 | 0.00 | 0.00 | 65 | 1004.2 |
| 20260505064148 | 68 | 171 | 4.3 | 8.7 | 0.00 | 0.00 | 0.00 | 65 | 1004.2 |
| 20260505063646 | 68 | 176 | 8.7 | 9.6 | 0.00 | 0.00 | 0.00 | 65 | 1004.1 |
| 20260505063142 | 68 | 186 | 4.3 | 7.8 | 0.00 | 0.00 | 0.00 | 65 | 1004.3 |
| 20260505062638 | 67 | 195 | 7.0 | 7.8 | 0.00 | 0.00 | 0.00 | 65 | 1004.3 |
| 20260505062135 | 67 | 171 | 6.1 | 10.4 | 0.00 | 0.00 | 0.00 | 65 | 1004.5 |
| 20260505061632 | 67 | 176 | 5.2 | 6.1 | 0.00 | 0.00 | 0.00 | 66 | 1004.3 |
| 20260505061131 | 67 | 180 | 4.3 | 9.6 | 0.00 | 0.00 | 0.00 | 65 | 1004.3 |
| 20260505060628 | 67 | 202 | 5.2 | 7.8 | 0.00 | 0.00 | 0.00 | 65 | 1004.5 |
| 20260505060124 | 67 | 172 | 6.1 | 6.1 | 0.00 | 0.00 | 0.00 | 66 | 1004.6 |
| 20260505055620 | 67 | 182 | 4.3 | 7.0 | 0.00 | 0.00 | 0.00 | 66 | 1004.3 |
| 20260505055116 | 67 | 181 | 2.6 | 6.1 | 0.00 | 0.00 | 0.00 | 65 | 1004.4 |
| 20260505054614 | 67 | 187 | 3.5 | 6.1 | 0.00 | 0.00 | 0.00 | 65 | 1004.5 |
| 20260505054112 | 67 | 179 | 4.3 | 5.2 | 0.00 | 0.00 | 0.00 | 65 | 1004.6 |
| 20260505053609 | 68 | 196 | 3.5 | 6.1 | 0.00 | 0.00 | 0.00 | 65 | 1004.8 |
| 20260505053105 | 68 | 198 | 2.6 | 3.5 | 0.00 | 0.00 | 0.00 | 64 | 1005.0 |
| 20260505052602 | 68 | 170 | 3.5 | 4.3 | 0.00 | 0.00 | 0.00 | 64 | 1004.8 |
| 20260505052100 | 68 | 178 | 4.3 | 5.2 | 0.00 | 0.00 | 0.00 | 64 | 1004.8 |
| 20260505051557 | 68 | 210 | 2.6 | 2.6 | 0.00 | 0.00 | 0.00 | 64 | 1005.2 |
| 20260505051055 | 68 | 201 | 1.7 | 2.6 | 0.00 | 0.00 | 0.00 | 64 | 1005.1 |
| 20260505050552 | 68 | 180 | 2.6 | 3.5 | 0.00 | 0.00 | 0.00 | 64 | 1004.6 |
| 20260505041520 | 69 | 66 | 1.7 | 2.6 | 0.00 | 0.00 | 0.00 | 62 | 1005.2 |
| 20260505041018 | 69 | 156 | 1.7 | 4.3 | 0.00 | 0.00 | 0.00 | 62 | 1005.3 |
| 20260505040515 | 69 | 232 | 0.0 | 4.3 | 0.00 | 0.00 | 0.00 | 62 | 1004.7 |
| 20260505040012 | 69 | 175 | 7.8 | 7.8 | 0.00 | 0.00 | 0.00 | 62 | 1004.8 |
| 20260505035508 | 69 | 164 | 2.6 | 7.8 | 0.00 | 0.00 | 0.00 | 63 | 1004.8 |
| 20260505035005 | 69 | 180 | 6.1 | 7.0 | 0.00 | 0.00 | 0.00 | 62 | 1004.8 |
| 20260505034501 | 69 | 187 | 6.1 | 11.3 | 0.00 | 0.00 | 0.00 | 62 | 1004.8 |
| 20260505033958 | 69 | 180 | 3.5 | 7.0 | 0.00 | 0.00 | 0.00 | 63 | 1005.2 |
| 20260505033455 | 69 | 178 | 6.1 | 7.0 | 0.00 | 0.00 | 0.00 | 62 | 1005.1 |
| 20260505032953 | 69 | 157 | 4.3 | 8.7 | 0.00 | 0.00 | 0.00 | 61 | 1005.3 |
| 20260505032450 | 69 | 167 | 5.2 | 7.8 | 0.00 | 0.00 | 0.00 | 62 | 1005.2 |
| 20260505031946 | 69 | 172 | 3.5 | 7.0 | 0.00 | 0.00 | 0.00 | 61 | 1005.2 |
| 20260505031444 | 70 | 182 | 4.3 | 4.3 | 0.00 | 0.00 | 0.00 | 60 | 1005.2 |
| 20260505030941 | 70 | 161 | 4.3 | 5.2 | 0.00 | 0.00 | 0.00 | 60 | 1005.2 |
| 20260505030436 | 70 | 180 | 5.2 | 7.8 | 0.00 | 0.00 | 0.00 | 59 | 1005.1 |
| 20260505025932 | 71 | 177 | 5.2 | 6.1 | 0.00 | 0.00 | 0.00 | 59 | 1005.2 |
| 20260505025429 | 71 | 171 | 7.0 | 7.8 | 0.00 | 0.00 | 0.00 | 58 | 1005.3 |
| 20260505024928 | 71 | 181 | 2.6 | 4.3 | 0.00 | 0.00 | 0.00 | 57 | 1005.2 |
| 20260505024425 | 71 | 195 | 1.7 | 4.3 | 0.00 | 0.00 | 0.00 | 56 | 1005.3 |
| 20260505023922 | 72 | 221 | 3.5 | 7.0 | 0.00 | 0.00 | 0.00 | 56 | 1005.0 |
| 20260505023419 | 72 | 228 | 3.5 | 4.3 | 0.00 | 0.00 | 0.00 | 55 | 1004.7 |
| 20260505022916 | 72 | 225 | 3.5 | 5.2 | 0.00 | 0.00 | 0.00 | 55 | 1005.0 |
| 20260505022414 | 72 | 206 | 6.1 | 7.8 | 0.00 | 0.00 | 0.00 | 54 | 1004.7 |
| 20260505021911 | 73 | 203 | 4.3 | 7.8 | 0.00 | 0.00 | 0.00 | 54 | 1004.7 |
| 20260505021407 | 73 | 179 | 5.2 | 9.6 | 0.00 | 0.00 | 0.00 | 54 | 1004.7 |
| 20260505020903 | 73 | 180 | 2.6 | 7.8 | 0.00 | 0.00 | 0.00 | 54 | 1004.5 |
| 20260505020358 | 73 | 187 | 4.3 | 12.2 | 0.00 | 0.00 | 0.00 | 53 | 1004.5 |
| 20260505015856 | 73 | 225 | 5.2 | 5.2 | 0.00 | 0.00 | 0.00 | 53 | 1004.6 |
| 20260505015353 | 73 | 204 | 4.3 | 9.6 | 0.00 | 0.00 | 0.00 | 52 | 1004.6 |
| 20260505014850 | 73 | 197 | 3.5 | 7.0 | 0.00 | 0.00 | 0.00 | 52 | 1004.2 |
| 20260505014347 | 73 | 188 | 6.1 | 8.7 | 0.00 | 0.00 | 0.00 | 52 | 1004.1 |
| 20260505013844 | 74 | 198 | 2.6 | 7.8 | 0.00 | 0.00 | 0.00 | 51 | 1004.2 |
| 20260505013341 | 74 | 212 | 5.2 | 7.0 | 0.00 | 0.00 | 0.00 | 51 | 1004.4 |
| 20260505012839 | 74 | 205 | 3.5 | 6.1 | 0.00 | 0.00 | 0.00 | 50 | 1004.1 |
| 20260505012337 | 74 | 211 | 3.5 | 7.0 | 0.00 | 0.00 | 0.00 | 50 | 1004.3 |
| 20260505011832 | 74 | 241 | 2.6 | 6.1 | 0.00 | 0.00 | 0.00 | 51 | 1004.3 |
| 20260505011330 | 74 | 203 | 3.5 | 4.3 | 0.00 | 0.00 | 0.00 | 51 | 1004.1 |
| 20260505010825 | 74 | 222 | 3.5 | 5.2 | 0.00 | 0.00 | 0.00 | 51 | 1003.8 |
| 20260505010321 | 74 | 191 | 3.5 | 4.3 | 0.00 | 0.00 | 0.00 | 51 | 1003.8 |
| 20260505005818 | 74 | 218 | 3.5 | 5.2 | 0.00 | 0.00 | 0.00 | 51 | 1003.8 |
| 20260505005315 | 74 | 175 | 1.7 | 3.5 | 0.00 | 0.00 | 0.00 | 51 | 1003.9 |
| 20260505004812 | 75 | 189 | 2.6 | 2.6 | 0.00 | 0.00 | 0.00 | 51 | 1003.8 |
| 20260505004308 | 75 | 174 | 2.6 | 3.5 | 0.00 | 0.00 | 0.00 | 50 | 1003.8 |
| 20260505003806 | 75 | 223 | 1.7 | 2.6 | 0.00 | 0.00 | 0.00 | 49 | 1003.8 |
| 20260505003303 | 76 | 181 | 1.7 | 4.3 | 0.00 | 0.00 | 0.00 | 49 | 1003.6 |
| 20260505002759 | 76 | 226 | 3.5 | 6.1 | 0.00 | 0.00 | 0.00 | 48 | 1003.4 |
| 20260505002256 | 76 | 237 | 2.6 | 7.8 | 0.00 | 0.00 | 0.00 | 47 | 1003.6 |
| 20260505001754 | 77 | 193 | 1.7 | 5.2 | 0.00 | 0.00 | 0.00 | 47 | 1003.6 |
| 20260505001251 | 77 | 213 | 2.6 | 7.8 | 0.00 | 0.00 | 0.00 | 46 | 1003.6 |
| 20260505000748 | 77 | 243 | 7.0 | 8.7 | 0.00 | 0.00 | 0.00 | 45 | 1003.5 |
| 20260505000246 | 77 | 216 | 7.8 | 7.8 | 0.00 | 0.00 | 0.00 | 45 | 1003.7 |
| 20260504235743 | 77 | 223 | 7.8 | 10.4 | 0.00 | 0.00 | 0.00 | 45 | 1003.5 |
| 20260504235239 | 78 | 214 | 7.0 | 9.6 | 0.00 | 0.00 | 0.00 | 45 | 1003.7 |
| 20260504234736 | 77 | 206 | 7.8 | 9.6 | 0.00 | 0.00 | 0.00 | 46 | 1003.8 |
| 20260504234233 | 78 | 226 | 7.0 | 10.4 | 0.00 | 0.00 | 0.00 | 46 | 1003.8 |
| 20260504233730 | 78 | 217 | 7.8 | 9.6 | 0.00 | 0.00 | 0.00 | 46 | 1003.7 |
| 20260504233225 | 78 | 241 | 9.6 | 11.3 | 0.00 | 0.00 | 0.00 | 45 | 1003.6 |
| 20260504232723 | 79 | 188 | 7.8 | 11.3 | 0.00 | 0.00 | 0.00 | 44 | 1003.8 |
| 20260504232220 | 80 | 213 | 3.5 | 8.7 | 0.00 | 0.00 | 0.00 | 46 | 1003.7 |
| 20260504231716 | 80 | 212 | 6.1 | 12.2 | 0.00 | 0.00 | 0.00 | 44 | 1003.6 |
| 20260504231213 | 80 | 195 | 3.5 | 11.3 | 0.00 | 0.00 | 0.00 | 45 | 1003.9 |
| 20260504230709 | 80 | 237 | 11.3 | 11.3 | 0.00 | 0.00 | 0.00 | 43 | 1003.8 |
| 20260504230208 | 80 | 195 | 6.1 | 8.7 | 0.00 | 0.00 | 0.00 | 44 | 1004.0 |
| 20260504225706 | 80 | 192 | 7.8 | 9.6 | 0.00 | 0.00 | 0.00 | 44 | 1003.8 |
| 20260504225202 | 80 | 242 | 12.2 | 16.5 | 0.00 | 0.00 | 0.00 | 43 | 1003.8 |
| 20260504224659 | 80 | 213 | 3.5 | 8.7 | 0.00 | 0.00 | 0.00 | 45 | 1003.8 |
| 20260504224156 | 80 | 222 | 4.3 | 9.6 | 0.00 | 0.00 | 0.00 | 44 | 1003.8 |
| 20260504223653 | 80 | 202 | 4.3 | 12.2 | 0.00 | 0.00 | 0.00 | 45 | 1003.7 |
| 20260504223148 | 80 | 202 | 3.5 | 11.3 | 0.00 | 0.00 | 0.00 | 45 | 1003.7 |
| 20260504222645 | 80 | 197 | 10.4 | 17.4 | 0.00 | 0.00 | 0.00 | 43 | 1003.8 |
| 20260504222142 | 81 | 255 | 7.0 | 14.8 | 0.00 | 0.00 | 0.00 | 43 | 1003.9 |
| 20260504221640 | 81 | 200 | 10.4 | 19.1 | 0.00 | 0.00 | 0.00 | 42 | 1004.0 |
| 20260504221137 | 81 | 226 | 6.1 | 11.3 | 0.00 | 0.00 | 0.00 | 44 | 1003.9 |
| 20260504220633 | 81 | 210 | 2.6 | 10.4 | 0.00 | 0.00 | 0.00 | 46 | 1003.9 |
| 20260504220131 | 80 | 229 | 8.7 | 11.3 | 0.00 | 0.00 | 0.00 | 44 | 1003.8 |
| 20260504215626 | 80 | 170 | 5.2 | 13.9 | 0.00 | 0.00 | 0.00 | 45 | 1003.8 |
| 20260504215124 | 80 | 206 | 11.3 | 17.4 | 0.00 | 0.00 | 0.00 | 43 | 1003.9 |
| 20260504214620 | 80 | 180 | 8.7 | 14.8 | 0.00 | 0.00 | 0.00 | 43 | 1003.6 |
| 20260504214117 | 80 | 209 | 9.6 | 13.0 | 0.00 | 0.00 | 0.00 | 44 | 1004.0 |
| 20260504213613 | 80 | 197 | 8.7 | 14.8 | 0.00 | 0.00 | 0.00 | 43 | 1004.0 |
| 20260504213110 | 80 | 180 | 8.7 | 11.3 | 0.00 | 0.00 | 0.00 | 45 | 1004.1 |
| 20260504212606 | 80 | 256 | 6.1 | 10.4 | 0.00 | 0.00 | 0.00 | 45 | 1003.9 |
| 20260504212103 | 80 | 213 | 8.7 | 14.8 | 0.00 | 0.00 | 0.00 | 44 | 1003.9 |
| 20260504211600 | 80 | 246 | 7.0 | 13.9 | 0.00 | 0.00 | 0.00 | 43 | 1004.0 |
| 20260504211057 | 80 | 234 | 12.2 | 15.6 | 0.00 | 0.00 | 0.00 | 42 | 1004.1 |
| 20260504210555 | 80 | 228 | 3.5 | 9.6 | 0.00 | 0.00 | 0.00 | 43 | 1004.1 |
| 20260504210051 | 81 | 221 | 6.1 | 14.8 | 0.00 | 0.00 | 0.00 | 42 | 1004.1 |
| 20260504205549 | 81 | 208 | 7.8 | 15.6 | 0.00 | 0.00 | 0.00 | 42 | 1004.3 |
| 20260504205046 | 81 | 230 | 10.4 | 13.0 | 0.00 | 0.00 | 0.00 | 44 | 1004.3 |
| 20260504204544 | 80 | 212 | 6.1 | 17.4 | 0.00 | 0.00 | 0.00 | 42 | 1004.3 |
| 20260504204043 | 80 | 217 | 11.3 | 18.2 | 0.00 | 0.00 | 0.00 | 44 | 1004.5 |
| 20260504203541 | 80 | 233 | 7.8 | 17.4 | 0.00 | 0.00 | 0.00 | 42 | 1004.4 |
| 20260504203038 | 80 | 196 | 7.0 | 14.8 | 0.00 | 0.00 | 0.00 | 44 | 1004.8 |
| 20260504202533 | 80 | 222 | 5.2 | 8.7 | 0.00 | 0.00 | 0.00 | 42 | 1004.4 |
| 20260504202031 | 80 | 249 | 10.4 | 15.6 | 0.00 | 0.00 | 0.00 | 42 | 1004.8 |
| 20260504201527 | 80 | 226 | 3.5 | 8.7 | 0.00 | 0.00 | 0.00 | 46 | 1005.0 |
| 20260504201025 | 80 | 230 | 6.1 | 19.1 | 0.00 | 0.00 | 0.00 | 42 | 1005.1 |
| 20260504200521 | 80 | 211 | 10.4 | 20.9 | 0.00 | 0.00 | 0.00 | 43 | 1005.0 |
| 20260504200018 | 80 | 241 | 7.0 | 18.2 | 0.00 | 0.00 | 0.00 | 43 | 1005.0 |
| 20260504195514 | 80 | 226 | 6.1 | 13.0 | 0.00 | 0.00 | 0.00 | 44 | 1004.8 |
| 20260504195011 | 80 | 211 | 11.3 | 17.4 | 0.00 | 0.00 | 0.00 | 43 | 1005.0 |
| 20260504194508 | 80 | 223 | 13.0 | 13.9 | 0.00 | 0.00 | 0.00 | 43 | 1004.8 |
| 20260504194003 | 80 | 245 | 7.8 | 14.8 | 0.00 | 0.00 | 0.00 | 43 | 1005.1 |
| 20260504193500 | 80 | 244 | 5.2 | 13.0 | 0.00 | 0.00 | 0.00 | 43 | 1005.1 |
| 20260504192959 | 80 | 193 | 6.1 | 10.4 | 0.00 | 0.00 | 0.00 | 43 | 1005.2 |
| 20260504192456 | 79 | 227 | 13.0 | 20.0 | 0.00 | 0.00 | 0.00 | 43 | 1005.5 |
| 20260504191955 | 80 | 175 | 10.4 | 20.9 | 0.00 | 0.00 | 0.00 | 42 | 1005.4 |
| 20260504191452 | 79 | 216 | 6.1 | 15.6 | 0.00 | 0.00 | 0.00 | 45 | 1005.2 |
| 20260504190947 | 80 | 189 | 7.8 | 17.4 | 0.00 | 0.00 | 0.00 | 45 | 1005.3 |
| 20260504190443 | 80 | 253 | 8.7 | 12.2 | 0.00 | 0.00 | 0.00 | 45 | 1005.2 |
| 20260504185940 | 80 | 223 | 11.3 | 18.2 | 0.00 | 0.00 | 0.00 | 43 | 1005.3 |
| 20260504185438 | 79 | 212 | 7.0 | 14.8 | 0.00 | 0.00 | 0.00 | 43 | 1005.3 |
| 20260504184933 | 79 | 232 | 13.9 | 19.1 | 0.00 | 0.00 | 0.00 | 42 | 1005.3 |
| 20260504184429 | 79 | 233 | 12.2 | 15.6 | 0.00 | 0.00 | 0.00 | 43 | 1005.4 |
| 20260504183925 | 80 | 206 | 9.6 | 14.8 | 0.00 | 0.00 | 0.00 | 44 | 1005.6 |
| 20260504183423 | 79 | 213 | 8.7 | 15.6 | 0.00 | 0.00 | 0.00 | 45 | 1005.6 |
| 20260504182921 | 79 | 221 | 2.6 | 13.0 | 0.00 | 0.00 | 0.00 | 46 | 1005.7 |
| 20260504182417 | 79 | 234 | 17.4 | 20.0 | 0.00 | 0.00 | 0.00 | 43 | 1005.6 |
| 20260504181914 | 79 | 246 | 7.8 | 12.2 | 0.00 | 0.00 | 0.00 | 44 | 1005.5 |
| 20260504181412 | 79 | 223 | 9.6 | 14.8 | 0.00 | 0.00 | 0.00 | 45 | 1005.4 |
| 20260504180910 | 79 | 259 | 15.6 | 18.2 | 0.00 | 0.00 | 0.00 | 44 | 1005.5 |
| 20260504180409 | 79 | 232 | 7.8 | 13.9 | 0.00 | 0.00 | 0.00 | 44 | 1005.5 |
| 20260504175906 | 78 | 240 | 11.3 | 16.5 | 0.00 | 0.00 | 0.00 | 43 | 1005.5 |
| 20260504175403 | 79 | 213 | 9.6 | 18.2 | 0.00 | 0.00 | 0.00 | 44 | 1005.5 |
| 20260504174901 | 79 | 201 | 7.0 | 10.4 | 0.00 | 0.00 | 0.00 | 46 | 1005.5 |
| 20260504174358 | 78 | 271 | 11.3 | 20.9 | 0.00 | 0.00 | 0.00 | 43 | 1005.5 |
| 20260504173855 | 78 | 236 | 3.5 | 13.0 | 0.00 | 0.00 | 0.00 | 45 | 1005.5 |
| 20260504173351 | 78 | 249 | 10.4 | 17.4 | 0.00 | 0.00 | 0.00 | 45 | 1005.5 |
| 20260504172849 | 78 | 221 | 10.4 | 16.5 | 0.00 | 0.00 | 0.00 | 45 | 1005.5 |
| 20260504172345 | 78 | 231 | 9.6 | 22.6 | 0.00 | 0.00 | 0.00 | 46 | 1005.5 |
| 20260504171841 | 78 | 233 | 10.4 | 15.6 | 0.00 | 0.00 | 0.00 | 46 | 1005.3 |
| 20260504171339 | 77 | 237 | 8.7 | 20.0 | 0.00 | 0.00 | 0.00 | 45 | 1005.4 |
| 20260504170836 | 77 | 218 | 18.2 | 20.9 | 0.00 | 0.00 | 0.00 | 44 | 1005.5 |
| 20260504170332 | 77 | 187 | 9.6 | 20.0 | 0.00 | 0.00 | 0.00 | 44 | 1005.6 |
| 20260504160251 | 76 | 199 | 8.7 | 13.0 | 0.00 | 0.00 | 0.00 | 46 | 1005.8 |
| 20260504150716 | 73 | 230 | 4.3 | 13.9 | 0.00 | 0.00 | 0.00 | 45 | 1006.2 |
| 20260504150213 | 73 | 193 | 6.1 | 9.6 | 0.00 | 0.00 | 0.00 | 50 | 1006.2 |
| 20260504141142 | 70 | 217 | 13.0 | 14.8 | 0.00 | 0.00 | 0.00 | 49 | 1006.9 |
| 20260504140639 | 69 | 191 | 7.8 | 11.3 | 0.00 | 0.00 | 0.00 | 49 | 1007.0 |
| 20260504140134 | 69 | 192 | 7.0 | 9.6 | 0.00 | 0.00 | 0.00 | 50 | 1006.9 |
| 20260504130603 | 66 | 216 | 9.6 | 14.8 | 0.00 | 0.00 | 0.00 | 52 | 1007.5 |
| 20260504110450 | 65 | 181 | 2.6 | 9.6 | 0.00 | 0.00 | 0.00 | 52 | 1007.8 |
| 20260504100413 | 66 | 179 | 7.8 | 10.4 | 0.00 | 0.00 | 0.00 | 50 | 1008.1 |
| 20260504081806 | 67 | 234 | 5.2 | 13.9 | 0.00 | 0.00 | 0.00 | 48 | 1008.0 |
| 20260504081303 | 67 | 186 | 5.2 | 7.8 | 0.00 | 0.00 | 0.00 | 49 | 1008.0 |
| 20260504080759 | 68 | 225 | 7.0 | 8.7 | 0.00 | 0.00 | 0.00 | 48 | 1008.1 |
| 20260504080255 | 68 | 170 | 3.5 | 13.9 | 0.00 | 0.00 | 0.00 | 49 | 1008.2 |